Orbital Elements at Epoch 2459200.5 (2020-Dec-17.0) TDB
Reference: JPL 24 (heliocentric ecliptic J2000)
Element | Value | Uncertainty (1-sigma) | Units |
e | .2087441825872171 | 4.5663e-08 | |
a | 2.273245882292594 | 1.3379e-08 | au |
q | 1.798719028773669 | 1.0879e-07 | au |
i | 5.378865082827371 | 4.3443e-06 | deg |
node | 233.8466471148663 | 4.4699e-05 | deg |
peri | 113.1322517144013 | 4.5538e-05 | deg |
M | 292.7978808605705 | 1.2219e-05 | deg |
tp | 2459434.194512148540 (2021-Aug-07.69451215) | 4.3952e-05 | TDB |
period | 1251.895408222516 3.43 | 1.1052e-05 3.026e-08 | d yr |
n | .2875639591258988 | 2.5387e-09 | deg/d |
Q | 2.747772735811519 | 1.6172e-08 | au |
|
| | Orbit Determination Parameters
Additional Information
|